Overview Statistics Trail Chart Weather Telemetry Raw packets
 

This is the latest recevied weather packets stored in our database for station/object K7SKM. If no packets are shown the sender has not sent any weather packets the latest 10 day(s).

<< 95 96 97 98 99 100 101 >>
Time Temp. Humidity Pressure Rain* Wind** Luminosity Snow
1787968735 21.67° C 52% 1019.5 hPa 0 mm - 25 W/m² -
1787968435 21.67° C 51% 1019.6 hPa 0 mm - 25 W/m² -
1787968130 21.67° C 51% 1019.6 hPa 0 mm - 24 W/m² -
1787967829 21.67° C 51% 1019.8 hPa 0 mm - 25 W/m² -
1787967527 21.67° C 50% 1019.8 hPa 0 mm - 32 W/m² -
1787967222 21.67° C 51% 1019.7 hPa 0 mm - 40 W/m² -
1787966918 22.22° C 51% 1019.8 hPa 0 mm - 43 W/m² -
1787966614 22.22° C 51% 1019.7 hPa 0 mm - 46 W/m² -
1787966314 22.22° C 50% 1019.9 hPa 0 mm - 50 W/m² -
1787966014 22.78° C 49% 1019.9 hPa 0 mm - 62 W/m² -
1787965703 22.78° C 50% 1019.8 hPa 0 mm - 88 W/m² -
1787965397 22.22° C 51% 1019.8 hPa 0 mm - 66 W/m² -
1787965097 21.67° C 51% 1020 hPa 0 mm - 63 W/m² -
1787964791 22.22° C 51% 1020 hPa 0 mm - 62 W/m² -
1787964487 22.22° C 52% 1020.2 hPa 0 mm - 59 W/m² -
1787964182 22.22° C 51% 1019.9 hPa 0 mm - 54 W/m² -
1787963881 22.22° C 51% 1020 hPa 0 mm - 53 W/m² -
1787963576 21.67° C 51% 1019.9 hPa 0 mm - 54 W/m² -
1787963271 22.22° C 51% 1020.1 hPa 0 mm - 60 W/m² -
1787962970 22.22° C 51% 1020.1 hPa 0 mm - 58 W/m² -
1787962669 22.22° C 51% 1020.2 hPa 0 mm - 63 W/m² -
1787962364 22.22° C 50% 1020.2 hPa 0 mm - 70 W/m² -
1787962059 22.22° C 52% 1020.3 hPa 0 mm - 70 W/m² -
1787961752 21.67° C 51% 1020.3 hPa 0 mm - 77 W/m² -
1787961446 21.67° C 51% 1020.2 hPa 0 mm - 89 W/m² -

* Rain latest hour (hover to see other rain measurements)
** Current wind speed in m/s (hover to see current wind gust speed)